RH
82 83 85 90 92 92 91 91 91 91 92 93 93 93 93 93 92 92 92 92 93 93 93 93 93 92 90 90 92 93 92 91 91 90 90 89 88 87 85 84 84 83 83 83 83 84 83 82 83 85 86 85 84 84 83 83 83 82 82 83 86 88 90 90 88 86 84 82 83
81 81 82 84 87 88 89 91 92 92 92 92 91 91 91 91 91 90 90 92 93 94 94 93 93 92 91 89 91 92 92 92 91 90 89 88 87 87 86 85 84 83 83 83 83 83 83 82 83 85 86 85 84 84 85 84 84 85 85 87 89 90 90 90 88 86 85 84 84
83 81 80 79 81 84 88 91 92 92 93 93 91 90 90 90 89 90 91 93 94 94 94 93 93 93 92 90 91 92 92 91 90 89 87 86 86 86 86 86 85 84 84 84 84 84 83 82 84 85 86 86 87 86 86 86 86 87 89 90 90 90 90 89 87 86 85 85 85
89 86 84 83 84 87 90 91 92 93 93 93 93 93 93 92 92 91 91 91 93 94 94 94 93 92 92 92 92 92 91 90 88 88 88 88 87 87 88 87 87 86 86 86 85 85 84 84 86 87 88 89 89 89 88 88 89 90 91 91 90 90 89 88 87 85 85 84 84
88 89 90 92 91 91 92 93 93 93 93 92 92 92 93 93 92 90 89 89 90 91 92 93 93 91 90 91 92 92 91 90 89 89 90 92 91 90 89 89 89 88 88 87 85 84 85 86 88 89 90 91 91 91 91 90 90 91 90 89 88 87 87 86 86 85 84 84 84
82 83 87 91 91 91 92 92 93 93 93 92 92 92 92 92 91 90 88 87 87 88 89 91 91 89 88 87 89 90 90 90 88 89 91 93 93 93 91 90 89 89 88 87 84 84 85 89 91 92 92 93 93 93 92 90 90 89 87 86 84 83 82 82 82 83 83 84 84
77 78 82 88 91 92 92 92 92 92 93 92 90 89 88 88 87 87 86 87 88 89 89 89 89 88 87 86 86 86 87 87 86 86 88 91 91 92 92 92 90 88 87 86 83 84 86 90 92 92 93 92 92 91 91 89 87 86 85 85 84 83 83 82 81 81 81 82 84
77 77 80 85 91 92 91 92 92 92 92 91 90 89 88 88 87 87 87 88 90 91 91 89 88 87 86 84 84 84 84 85 84 85 87 91 91 92 92 92 90 88 87 86 84 85 88 91 92 92 92 90 90 90 90 89 87 85 85 84 84 83 83 82 81 80 80 80 83
78 79 81 84 88 89 89 89 90 90 90 89 90 91 91 91 90 91 91 91 91 90 90 89 87 86 85 83 83 83 84 84 84 85 87 89 90 90 90 90 89 88 88 87 87 88 90 93 92 91 90 88 88 88 89 89 88 87 85 83 82 81 81 80 80 79 79 79 81
76 79 82 84 85 85 86 87 88 89 88 88 90 91 91 91 92 93 93 93 91 90 89 88 87 86 85 85 85 86 86 86 86 86 87 88 88 89 89 89 89 90 90 90 90 91 92 93 92 90 89 89 89 88 87 87 87 87 86 83 81 80 79 79 81 82 83 83 84
71 76 79 82 83 83 83 84 87 90 91 92 90 89 88 89 91 92 92 92 92 91 91 90 90 90 90 90 90 90 89 88 86 86 86 87 87 88 88 88 90 90 91 90 91 92 93 93 92 90 89 90 90 89 87 86 86 86 85 83 83 82 82 82 84 86 87 88 88
66 70 75 79 81 81 81 82 86 89 91 91 90 88 87 87 87 87 88 89 90 90 90 90 90 90 89 89 88 87 86 85 84 83 84 86 88 88 88 88 89 89 89 89 89 90 92 92 92 91 90 90 90 89 87 86 86 85 85 85 85 86 86 86 84 83 82 80 82
63 66 70 75 77 79 79 80 83 85 86 87 86 85 86 86 85 85 85 86 86 85 85 84 85 85 86 86 85 85 84 83 82 82 83 85 86 87 86 87 88 88 89 89 89 89 90 90 90 89 89 88 87 87 86 86 86 86 86 86 88 89 89 87 81 77 74 73 76
61 63 66 69 72 74 76 77 79 81 82 82 81 81 81 81 82 82 82 82 82 81 81 81 82 83 84 84 84 84 83 82 81 81 82 83 84 84 85 86 87 88 89 90 90 90 89 88 86 85 85 84 83 84 85 86 87 87 86 86 88 88 87 84 79 75 73 73 76
60 60 62 65 67 69 71 72 75 77 79 79 79 78 77 77 77 77 78 78 78 79 79 80 81 82 83 84 84 84 83 81 81 82 82 82 81 81 81 84 87 89 90 91 91 90 88 86 84 83 81 80 81 82 84 86 86 86 85 83 83 82 81 79 76 75 75 76 77
61 61 61 64 66 68 68 68 70 72 74 76 77 76 75 74 74 73 74 74 75 75 76 77 78 79 79 80 81 82 82 82 82 82 82 80 78 77 77 79 83 86 88 90 89 88 86 84 82 80 78 78 80 81 83 84 83 82 80 78 76 74 73 73 74 76 77 77 76
62 61 61 62 65 67 69 69 69 69 71 74 76 76 76 75 74 73 72 72 72 72 71 72 73 73 73 74 75 77 79 80 81 80 80 79 77 76 75 75 78 81 84 86 88 88 87 84 81 79 78 79 80 81 82 81 80 78 75 72 70 70 70 72 75 76 77 76 74
64 64 63 62 63 66 69 71 71 72 72 74 76 77 78 78 77 76 75 74 72 70 68 68 67 68 68 69 70 71 74 76 77 78 78 78 77 76 75 74 75 77 79 82 84 86 86 85 83 82 81 81 82 82 81 79 77 74 71 68 68 69 72 75 76 76 75 73 70
64 66 66 65 65 67 69 72 73 74 74 75 76 78 79 80 80 79 78 76 74 71 69 67 66 66 66 66 68 70 72 74 75 75 75 75 75 75 74 74 73 74 75 78 80 81 82 83 83 82 82 81 80 79 76 74 71 68 67 67 69 72 75 76 76 74 72 69 65
62 65 66 67 67 68 70 72 74 75 76 76 76 77 78 79 79 79 79 77 75 73 71 69 68 67 67 67 69 71 73 73 73 73 73 72 73 73 73 73 73 73 73 75 76 77 78 78 78 78 77 75 73 71 69 67 66 66 66 69 71 73 75 75 73 71 67 64 58
59 61 63 65 67 68 70 71 73 74 75 75 75 75 75 76 76 76 76 75 74 73 71 70 69 69 69 70 71 72 73 73 73 72 72 72 72 72 72 72 72 72 73 73 74 74 75 74 74 73 72 70 69 68 67 67 67 68 70 71 73 73 73 72 69 65 60 55 49
58 59 60 61 63 64 66 68 69 71 71 71 71 71 71 71 72 72 72 72 71 70 69 69 69 69 69 70 71 72 72 73 72 72 72 72 72 71 71 70 70 70 70 72 73 73 73 73 72 71 71 71 71 71 71 71 71 71 71 71 72 71 69 65 61 56 51 46 41
58 58 58 59 59 60 61 62 63 64 65 65 66 66 67 67 68 68 68 67 66 66 66 66 66 67 67 68 70 71 71 72 72 71 71 71 70 70 69 68 67 67 69 72 74 73 72 70 70 70 71 72 72 72 72 71 70 69 69 68 67 65 62 57 52 48 43 39 37
58 58 58 58 58 58 57 57 58 58 59 60 61 62 63 64 64 64 64 63 63 63 63 63 64 64 65 65 66 68 69 70 70 70 69 69 69 68 67 65 64 64 65 67 68 68 66 65 66 66 67 68 68 68 68 67 67 66 65 64 62 59 55 51 46 42 39 36 34
58 58 58 57 57 57 56 56 56 56 56 57 58 59 60 61 61 62 61 61 61 61 62 62 62 62 63 63 64 65 66 66 67 67 67 67 67 66 65 64 62 61 60 59 59 59 59 59 59 60 61 62 62 62 63 63 63 63 63 62 59 55 51 46 43 39 37 35 34
58 58 58 57 57 57 56 56 56 55 56 56 57 58 58 59 59 60 60 60 60 61 61 62 62 62 62 62 63 63 64 64 65 65 65 65 65 64 64 63 61 59 57 56 55 56 56 56 57 58 58 59 60 60 61 61 62 62 61 59 55 52 48 44 41 39 37 35 34
58 58 58 58 58 58 58 57 57 56 56 57 57 58 58 58 58 58 58 58 59 59 60 61 61 61 62 62 62 62 62 62 62 63 63 63 63 63 62 61 60 59 58 57 57 57 57 58 58 59 59 60 61 61 62 62 62 61 59 56 52 48 45 42 39 37 36 34 34
56 57 57 58 59 59 58 58 57 57 57 57 57 58 58 58 57 57 56 56 56 56 57 57 58 59 60 60 60 60 60 60 61 61 62 62 62 62 61 61 60 60 60 60 60 60 60 61 61 61 62 63 63 64 64 63 62 59 56 52 48 45 42 40 38 36 35 34 33
52 53 54 56 57 57 58 58 57 57 57 57 57 57 57 57 57 56 56 55 55 55 54 54 55 56 57 58 58 59 60 60 61 61 61 61 61 62 62 62 62 62 63 63 63 63 63 63 63 64 64 65 65 64 63 62 59 55 51 48 45 42 40 38 37 35 35 34 34
50 50 51 52 52 54 54 55 55 55 56 56 56 56 56 56 56 56 55 55 55 54 53 53 54 55 56 56 58 59 60 61 61 61 62 62 62 63 63 64 64 65 65 65 65 65 65 65 65 65 65 65 64 63 61 58 55 51 48 45 42 40 39 37 36 36 35 35 35
48 48 48 49 49 50 50 51 52 52 53 53 53 54 54 54 54 54 54 54 54 53 53 53 54 55 55 57 58 59 60 61 62 63 63 63 64 64 64 65 65 66 66 67 67 66 66 66 66 65 65 64 62 60 58 55 52 49 46 44 42 40 39 38 37 37 37 37 37
47 47 47 47 47 47 48 49 49 49 49 50 50 50 50 51 51 51 51 52 52 52 52 53 53 54 55 57 58 59 60 61 62 63 64 64 64 65 65 66 66 67 67 67 67 67 66 66 66 65 63 62 60 58 56 53 51 48 46 44 42 41 39 39 38 38 38 38 38
45 44 44 44 45 45 46 46 46 47 47 47 47 47 47 47 48 48 49 49 50 50 51 51 52 53 54 55 56 57 58 59 61 62 64 65 65 65 66 66 66 67 67 67 66 66 66 65 64 62 61 59 57 56 54 52 50 47 45 44 42 41 40 40 40 40 40 40 40
43 43 42 42 42 43 43 44 44 44 44 44 44 45 45 45 46 46 47 47 48 48 49 49 50 50 51 52 52 53 55 56 58 60 62 63 65 65 66 66 66 66 66 65 65 64 63 63 61 60 58 57 56 54 53 51 49 47 45 44 42 41 41 41 41 42 41 41 41
43 42 41 41 41 41 41 41 42 42 42 42 42 43 44 44 45 45 46 46 47 47 47 47 47 48 48 48 49 50 51 53 55 57 59 62 63 65 66 66 66 66 65 64 64 63 62 61 59 58 57 56 55 54 52 50 49 47 45 44 43 43 43 43 43 43 43 42 42
44 43 42 41 41 40 40 40 40 40 40 41 41 42 43 44 45 45 46 46 46 46 46 46 46 46 46 46 46 47 48 50 52 54 56 59 61 64 65 66 65 65 64 64 64 63 62 61 60 59 58 57 56 54 52 50 48 47 45 44 44 44 44 44 44 44 43 43 42
46 45 44 43 42 41 41 40 40 40 40 40 41 42 43 44 45 46 46 46 46 46 46 46 45 45 44 44 45 45 46 47 49 51 53 56 58 61 62 63 63 63 64 64 64 64 63 62 62 61 59 58 56 54 52 50 48 47 46 45 45 45 45 45 45 44 44 44 43
50 49 48 47 45 44 43 42 42 42 41 41 41 42 43 44 46 47 47 47 47 46 46 46 45 45 45 45 44 45 45 46 47 49 51 53 55 57 59 60 60 61 62 62 63 64 64 64 62 61 60 58 56 53 52 50 48 47 47 46 46 46 46 46 46 45 45 44 44
55 54 52 51 49 48 47 46 45 44 43 43 43 43 44 45 47 48 48 48 48 48 47 47 46 46 46 46 46 45 45 46 46 48 49 51 53 54 55 56 57 58 59 60 61 62 62 62 61 60 58 56 54 52 51 50 49 48 48 47 47 47 47 47 46 46 45 45 44
58 57 56 56 55 53 51 50 48 47 46 46 45 45 46 47 49 50 50 50 50 49 49 49 48 48 48 48 47 47 47 47 47 48 49 50 51 52 53 54 55 56 56 57 58 59 59 59 58 57 56 54 53 52 50 50 49 49 48 48 48 47 47 47 46 46 45 45 45
60 59 59 59 59 58 57 55 53 51 50 49 48 48 48 49 50 52 52 53 52 52 51 51 51 50 50 50 50 50 49 49 49 49 50 50 51 52 52 53 54 54 55 56 56 57 57 57 56 55 54 53 52 51 50 50 49 49 49 48 48 47 47 47 46 46 46 46 46